| time (UTC) | temp F | wind direction | speed MPH | gust MPH | rain 1hr in | rain 24hr in | rain mn in | humidity % | barometer mb |
| 20260502151946 | 65 | 4 | 9.0 | 22.0 | 0.00 | 1.19 | 0.00 | 67 | 1020.7 |
| 20260502150447 | 64 | 45 | 3.0 | 18.0 | 0.00 | 1.22 | 0.00 | 71 | 1020.7 |
| 20260502130445 | 55 | 347 | 2.0 | 7.0 | 0.00 | 2.23 | 0.00 | 86 | 1019.5 |
| 20260502123444 | 53 | 0 | 3.0 | 9.0 | 0.00 | 2.53 | 0.00 | 88 | 1019.0 |
| 20260502121942 | 53 | 4 | 3.0 | 7.0 | 0.00 | 2.57 | 0.00 | 88 | 1018.8 |
| 20260502120443 | 52 | 0 | 2.0 | 7.0 | 0.00 | 2.79 | 0.00 | 88 | 1018.7 |
| 20260502114942 | 52 | 358 | 2.0 | 7.0 | 0.00 | 2.97 | 0.00 | 88 | 1018.5 |
| 20260502113443 | 52 | 0 | 2.0 | 5.0 | 0.00 | 2.99 | 0.00 | 88 | 1018.4 |
| 20260502111940 | 52 | 358 | 2.0 | 7.0 | 0.00 | 3.04 | 0.00 | 88 | 1018.3 |
| 20260502110442 | 52 | 3 | 3.0 | 7.0 | 0.00 | 3.09 | 0.00 | 88 | 1018.0 |
| 20260502104940 | 52 | 347 | 2.0 | 11.0 | 0.00 | 3.11 | 0.00 | 88 | 1017.9 |
| 20260502103440 | 52 | 337 | 5.0 | 11.0 | 0.00 | 3.16 | 0.00 | 88 | 1017.8 |
| 20260502101939 | 52 | 0 | 2.0 | 11.0 | 0.00 | 3.18 | 0.00 | 88 | 1017.7 |
| 20260502100441 | 52 | 0 | 3.0 | 11.0 | 0.00 | 3.20 | 0.00 | 88 | 1017.5 |
| 20260502090439 | 53 | 0 | 2.0 | 5.0 | 0.00 | 3.49 | 0.00 | 88 | 1016.3 |
| 20260502070435 | 55 | 0 | 3.0 | 9.0 | 0.00 | 3.78 | 0.00 | 86 | 1016.5 |
| 20260502064935 | 55 | 358 | 5.0 | 14.0 | 0.00 | 3.78 | 0.00 | 86 | 1016.2 |
| 20260502063437 | 55 | 27 | 5.0 | 13.0 | 0.00 | 3.78 | 0.00 | 87 | 1016.2 |
| 20260502061932 | 55 | 354 | 2.0 | 11.0 | 0.00 | 3.78 | 0.00 | 87 | 1016.0 |
| 20260502060435 | 55 | 7 | 8.0 | 16.0 | 0.00 | 3.80 | 0.00 | 88 | 1016.1 |
| 20260502054933 | 55 | 306 | 3.0 | 18.0 | 0.00 | 3.80 | 0.00 | 88 | 1016.0 |
| 20260502053435 | 55 | 58 | 6.0 | 18.0 | 0.00 | 3.80 | 0.00 | 88 | 1016.1 |
| 20260502051933 | 55 | 354 | 6.0 | 13.0 | 0.00 | 3.82 | 0.00 | 89 | 1016.1 |
| 20260502050434 | 55 | 1 | 3.0 | 16.0 | 0.00 | 3.86 | 0.00 | 89 | 1016.1 |
| 20260502044932 | 55 | 4 | 9.0 | 18.0 | 0.00 | 3.87 | 3.86 | 89 | 1016.1 |
| 20260502043434 | 56 | 0 | 4.0 | 16.0 | 0.00 | 3.87 | 3.86 | 89 | 1016.0 |
| 20260502042627 | 56 | 7 | 7.0 | 16.0 | 0.00 | 3.88 | 3.86 | 89 | 1015.9 |
| 20260502040432 | 56 | 1 | 5.0 | 16.0 | 0.00 | 3.88 | 3.86 | 89 | 1016.1 |
| 20260502034931 | 56 | 350 | 6.0 | 20.0 | 0.00 | 3.88 | 3.86 | 89 | 1016.0 |
| 20260502033432 | 56 | 340 | 9.0 | 16.0 | 0.00 | 3.88 | 3.86 | 89 | 1015.8 |
| 20260502031930 | 56 | 281 | 4.0 | 14.0 | 0.00 | 3.88 | 3.86 | 89 | 1015.6 |
| 20260502030431 | 56 | 343 | 6.0 | 16.0 | 0.02 | 3.88 | 3.86 | 89 | 1015.3 |
| 20260502024929 | 56 | 24 | 5.0 | 14.0 | 0.05 | 3.85 | 3.86 | 89 | 1014.6 |
| 20260502023433 | 56 | 0 | 6.0 | 22.0 | 0.08 | 3.85 | 3.86 | 89 | 1014.7 |
| 20260502021929 | 56 | 4 | 10.0 | 20.0 | 0.11 | 3.85 | 3.86 | 89 | 1014.6 |
| 20260502020430 | 56 | 0 | 6.0 | 18.0 | 0.12 | 3.85 | 3.84 | 89 | 1014.5 |
| 20260502014930 | 56 | 355 | 9.0 | 20.0 | 0.09 | 3.74 | 3.81 | 89 | 1014.2 |
| 20260502013429 | 56 | 347 | 10.0 | 25.0 | 0.08 | 3.74 | 3.78 | 89 | 1013.6 |
| 20260502012631 | 57 | 355 | 4.0 | 14.0 | 0.07 | 3.74 | 3.74 | 90 | 1014.2 |
| 20260502010430 | 57 | 319 | 5.0 | 29.0 | 0.07 | 3.74 | 3.72 | 89 | 1013.4 |
| 20260502005631 | 58 | 333 | 8.0 | 20.0 | 0.10 | 3.66 | 3.72 | 90 | 1012.5 |
| 20260502003429 | 58 | 0 | 3.0 | 11.0 | 0.10 | 3.66 | 3.70 | 90 | 1013.3 |
| 20260502001928 | 59 | 355 | 3.0 | 11.0 | 0.11 | 3.66 | 3.67 | 90 | 1013.1 |
| 20260502000427 | 59 | 0 | 3.0 | 13.0 | 0.26 | 3.66 | 3.65 | 90 | 1012.4 |
| 20260501234926 | 59 | 358 | 4.0 | 7.0 | 0.32 | 3.35 | 3.62 | 90 | 1012.5 |
| 20260501233426 | 59 | 72 | 2.0 | 7.0 | 0.32 | 3.35 | 3.60 | 90 | 1012.4 |
| 20260501231925 | 59 | 0 | 2.0 | 9.0 | 0.28 | 3.35 | 3.56 | 89 | 1012.3 |
| 20260501231138 | 59 | 16 | 5.0 | 11.0 | 0.12 | 3.35 | 3.38 | 89 | 1012.2 |
| 20260501224924 | 59 | 338 | 4.0 | 11.0 | 0.11 | 3.27 | 3.30 | 89 | 1010.7 |
| 20260501223425 | 60 | 118 | 4.0 | 18.0 | 0.10 | 3.27 | 3.28 | 90 | 1010.2 |
| 20260501221923 | 60 | 330 | 5.0 | 18.0 | 0.11 | 3.27 | 3.28 | 90 | 1010.6 |
| 20260501221122 | 60 | 0 | 3.0 | 13.0 | 0.11 | 3.27 | 3.27 | 90 | 1012.1 |
| 20260501220331 | 60 | 343 | 3.0 | 16.0 | 0.06 | 3.17 | 3.19 | 90 | 1012.3 |
| 20260501214119 | 60 | 319 | 5.0 | 13.0 | 0.09 | 3.17 | 3.18 | 90 | 1011.9 |
| 20260501211922 | 60 | 0 | 6.0 | 14.0 | 0.11 | 3.17 | 3.17 | 90 | 1011.1 |
| 20260501210424 | 60 | 0 | 8.0 | 16.0 | 0.13 | 3.17 | 3.16 | 90 | 1009.8 |
| 20260501204922 | 60 | 351 | 5.0 | 16.0 | 0.10 | 3.05 | 3.13 | 90 | 1011.1 |
| 20260501203427 | 61 | 0 | 6.0 | 22.0 | 0.07 | 3.05 | 3.09 | 90 | 1010.3 |
| 20260501201921 | 61 | 18 | 7.0 | 18.0 | 0.04 | 3.05 | 3.06 | 90 | 1010.7 |
| 20260501201124 | 62 | 327 | 5.0 | 14.0 | 0.04 | 3.05 | 3.03 | 90 | 1010.9 |
| 20260501194920 | 62 | 338 | 4.0 | 13.0 | 0.06 | 3.01 | 3.03 | 90 | 1010.7 |
| 20260501193422 | 62 | 357 | 3.0 | 11.0 | 0.06 | 3.01 | 3.02 | 90 | 1010.2 |
| 20260501191920 | 62 | 351 | 4.0 | 11.0 | 0.08 | 3.01 | 3.02 | 90 | 1009.8 |
| 20260501190422 | 62 | 34 | 3.0 | 9.0 | 0.06 | 3.01 | 2.99 | 90 | 1009.5 |
| 20260501184920 | 62 | 0 | 2.0 | 11.0 | 0.06 | 2.94 | 2.97 | 90 | 1010.0 |
| 20260501183420 | 62 | 341 | 4.0 | 13.0 | 0.07 | 2.94 | 2.96 | 90 | 1009.6 |
| 20260501181918 | 62 | 82 | 5.0 | 14.0 | 0.05 | 2.94 | 2.94 | 90 | 1008.9 |
| 20260501181111 | 62 | 59 | 3.0 | 11.0 | 0.05 | 2.94 | 2.93 | 90 | 1009.3 |
| 20260501175620 | 62 | 48 | 5.0 | 13.0 | 0.04 | 2.89 | 2.91 | 90 | 1010.2 |
| 20260501173419 | 62 | 7 | 6.0 | 16.0 | 0.04 | 2.89 | 2.89 | 90 | 1011.2 |
| 20260501173303 | 62 | 354 | 3.0 | 11.0 | 0.07 | 2.89 | 2.89 | 90 | 1011.0 |
| 20260501170417 | 62 | 354 | 2.0 | 20.0 | 0.11 | 2.89 | 2.88 | 90 | 1011.2 |
| 20260501164917 | 62 | 358 | 8.0 | 22.0 | 0.12 | 2.78 | 2.87 | 90 | 1011.9 |
| 20260501163417 | 62 | 0 | 7.0 | 27.0 | 0.11 | 2.78 | 2.85 | 90 | 1012.3 |
| 20260501161916 | 62 | 336 | 9.0 | 22.0 | 0.15 | 2.78 | 2.82 | 90 | 1012.9 |
| 20260501160417 | 62 | 350 | 6.0 | 14.0 | 0.13 | 2.78 | 2.77 | 90 | 1013.0 |
| 20260501154916 | 62 | 1 | 6.0 | 18.0 | 0.12 | 2.66 | 2.75 | 90 | 1013.0 |
| 20260501153415 | 62 | 344 | 6.0 | 11.0 | 0.14 | 2.66 | 2.74 | 90 | 1012.8 |